Flight Track Log - Related Links

Times and Time Zones

All times are in EDT time to prevent confusion due to time zone crossing. See the ASQ4198 flight status page for this flight to view local times or setup timezone preferences in your user account.

Time Position Orientation Groundspeed Altitude Reporting Facility
EDT Latitude Longitude Course Direction KTS MPH feet Rate Location/Type
Wed 04:03:30 PM 27.7797 -97.5183 35° Northeast 157 181 600  Level Houston Center
Wed 04:04:12 PM 27.8122 -97.5281 345° North 170 196 2,000 2,097 Climbing Houston Center
Wed 04:05:13 PM 27.8528 -97.4939 37° Northeast 202 232 4,200 2,079 Climbing Houston Center
Wed 04:06:00 PM 27.8984 -97.4328 344° North  Level FlightAware Approximate
Wed 04:06:19 PM 27.9064 -97.4417 41° Northeast 237 273 6,400  Level Houston Center
Wed 04:07:00 PM 27.9471 -97.3923 35° Northeast  Level FlightAware Approximate
Wed 04:07:21 PM 27.9567 -97.3967 38° Northeast 241 277 8,600  Level Houston Center
Wed 04:08:00 PM 27.9971 -97.3523 35° Northeast  Level FlightAware Approximate
Wed 04:08:24 PM 28.0217 -97.3369 39° Northeast 248 285 11,000  Level Houston Center
Wed 04:09:26 PM 28.0736 -97.2794 44° Northeast 257 296 13,200 1,452 Climbing Houston Center
Wed 04:10:28 PM 28.1378 -97.2328 33° Northeast 275 316 14,000 677 Climbing Houston Center
Wed 04:11:30 PM 28.2133 -97.1747 34° Northeast 322 371 14,600 629 Climbing Houston Center
Wed 04:12:32 PM 28.2994 -97.1114 33° Northeast 362 417 15,300 871 Climbing Houston Center
Wed 04:13:34 PM 28.3881 -97.0456 33° Northeast 380 437 16,400 774 Climbing Houston Center
Wed 04:14:36 PM 28.4989 -96.9625 33° Northeast 397 457 16,900 240 Climbing Houston Center
Wed 04:15:39 PM 28.5978 -96.8878 34° Northeast 422 486 16,900  Level Houston Center
Wed 04:16:41 PM 28.6983 -96.8133 33° Northeast 430 495 16,900  Level Houston Center
Wed 04:17:43 PM 28.7983 -96.7378 34° Northeast 432 497 16,900  Level Houston Center
Wed 04:18:45 PM 28.8978 -96.6608 34° Northeast 433 498 16,900  Level Houston Center
Wed 04:19:47 PM 29.0181 -96.5711 33° Northeast 433 498 16,900  Level Houston Center
Wed 04:20:49 PM 29.1172 -96.4947 34° Northeast 434 499 16,900  Level Houston Center
Wed 04:21:51 PM 29.2161 -96.4189 34° Northeast 433 498 16,900 -242 Level Houston Center
Wed 04:22:53 PM 29.3292 -96.3344 33° Northeast 434 499 16,400 -1,135 Descending Houston Center
Wed 04:23:42 PM 29.4117 -96.2703 34° Northeast 426 490 14,800 -2,127 Descending Houston Center
Wed 04:24:43 PM 29.5025 -96.2028 33° Northeast 385 443 12,500 -1,366 Descending Houston Center
Wed 04:25:45 PM 29.5669 -96.1211 48° Northeast 339 390 12,000 -468 Descending Houston Center
Wed 04:26:00 PM 29.5797 -96.0997 56° Northeast 358 412 11,900  Descending Houston Center
Wed 04:26:52 PM 29.6264 -96.0086 59° Northeast 355 409 12,000 -425 Climbing Houston Center
Wed 04:27:53 PM 29.6744 -95.9094 61° Northeast 354 407 11,100 -934 Descending Houston Center
Wed 04:28:54 PM 29.7264 -95.8097 59° Northeast 347 399 10,100 -564 Descending Houston Center
Wed 04:29:50 PM 29.7711 -95.7203 60° Northeast 342 394 10,000 -81 Descending Houston Center
Wed 04:30:08 PM 29.7789 -95.7039 61° Northeast 342 394 10,000 -1,273 Level Houston Center
Wed 04:30:56 PM 29.8156 -95.6308 60° Northeast 294 338 8,600 -1,615 Descending Houston Center
Wed 04:31:52 PM 29.8528 -95.5542 61° Northeast 294 338 7,200 -1,342 Descending Houston Center
Wed 04:32:12 PM 29.8606 -95.5417 54° Northeast 294 338 6,900 -1,075 Descending Houston Center
Wed 04:32:59 PM 29.8933 -95.4675 63° Northeast 274 315 6,000 -871 Descending Houston Center
Wed 04:33:14 PM 29.8953 -95.4619 68° East 281 323 6,000  Level Houston Center
Wed 04:34:00 PM 29.8953 -95.3756 90° East 286 329 6,000  Level Houston Center
Wed 04:34:16 PM 29.8961 -95.3531 88° East 285 328 6,000  Level Houston Center
Wed 04:34:55 PM 29.8961 -95.2936 90° East 284 327 6,000  Level Houston Center
Wed 04:35:18 PM 29.8972 -95.2622 88° East 283 326 6,000 -179 Level Houston Center
Wed 04:36:02 PM 29.8958 -95.1997 91° East 232 267 5,800 -581 Descending Houston Center
Wed 04:36:20 PM 29.8969 -95.1817 86° East 252 290 5,400 -1,574 Descending Houston Center
Wed 04:37:03 PM 29.8972 -95.1225 90° East 237 273 4,200 -1,355 Descending Houston Center
Wed 04:37:22 PM 29.9014 -95.1075 72° East 236 272 4,000 -677 Descending Houston Center
Wed 04:38:05 PM 29.9428 -95.0928 17° North 187 215 3,500 -581 Descending Houston Center
Wed 04:38:24 PM 29.9528 -95.0911 North 198 228 3,400 -492 Descending Houston Center
Wed 04:39:06 PM 29.9811 -95.1217 317° Northwest 191 220 3,000 -476 Descending Houston Center
Wed 04:39:27 PM 29.9900 -95.1306 319° Northwest 188 216 2,900 -545 Descending Houston Center
Wed 04:40:01 PM 29.9922 -95.1733 273° West 188 216 2,500 -677 Descending Houston Center
Wed 04:40:29 PM 29.9933 -95.2019 273° West 188 216 2,200 -643 Descending Houston Center

Login

Don't have an account? Register now (free) for customized features, flight alerts, and more!